Change the Weather History Date:

Monday, June 24, 2013

  Actual Average Record
Temperature  
Mean Temperature 74 °F 73 °F  
Max Temperature 82 °F 83 °F 103 °F (1988)
Min Temperature 65 °F 63 °F 50 °F (2004)
Degree Days  
Heating Degree Days 0 0  
Month to date heating degree days 32 16  
Since 1 June heating degree days 32 16  
Since 1 July heating degree days 6092 6076  
Cooling Degree Days 9 8  
Month to date cooling degree days 134 140  
Year to date cooling degree days 210 194  
Since 1 June cooling degree days 134 140  
Growing Degree Days 24 (Base 50)    
Moisture  
Dew Point 67 °F    
Average Humidity 82    
Maximum Humidity 90    
Minimum Humidity 74    
Precipitation  
Precipitation 0.21 in 0.15 in 2.20 in (2006)
Month to date precipitation 3.60 4.18  
Sea Level Pressure  
Sea Level Pressure 29.91 in    
Wind  
Wind Speed 7 mph (SSE)    
Max Wind Speed 29 mph    
Max Gust Speed 37 mph    
Visibility 9 miles    
Events Rain , Thunderstorm    
T = Trace of Precipitation, MM = Missing Value Source: NWS Daily Summary

Daily Weather History Graph

Daily Weather History Graph

Search for Another Location

Airport or City:

Trip Planner

Search our weather history database for the weather conditions in past years. The results will help you decide how hot, cold, wet, or windy it might be!

Date:

Astronomy

Jun. 24, 2013 Rise Set
Actual Time 5:45 AM CDT 8:50 PM CDT
Civil Twilight 5:12 AM CDT 9:23 PM CDT
Nautical Twilight 4:29 AM CDT 10:06 PM CDT
Astronomical Twilight 3:39 AM CDT 10:56 PM CDT
Moon 9:52 PM CDT (6/24) 7:14 AM CDT (6/24)
Length of Visible Light 16h 11m
Length of Day
15h 04m
Full, 98% of the Moon is Illuminated
Jun 24
Full
Jun 29
Last Quarter
Jul 8
New
Jul 15
First Quarter
Jul 22
Full

Hourly Weather History & Observations

Time (CDT) Temp. Heat Index Dew Point Humidity Pressure Visibility Wind Dir Wind Speed Gust Speed Precip Events Conditions
12:53 AM 71.1 °F - 66.0 °F 84% 29.93 in 10.0 mi SSE 8.1 mph - N/A   Mostly Cloudy
1:53 AM 70.0 °F - 66.9 °F 90% 29.92 in 10.0 mi SSE 9.2 mph - N/A   Clear
2:53 AM 70.0 °F - 66.9 °F 90% 29.91 in 10.0 mi South 4.6 mph - N/A   Clear
3:53 AM 71.1 °F - 66.9 °F 87% 29.91 in 10.0 mi South 8.1 mph - N/A   Clear
4:53 AM 71.1 °F - 66.9 °F 87% 29.91 in 10.0 mi South 8.1 mph - N/A   Clear
5:53 AM 70.0 °F - 66.9 °F 90% 29.91 in 8.0 mi SSE 4.6 mph - N/A   Clear
6:53 AM 70.0 °F - 66.9 °F 90% 29.93 in 7.0 mi Calm Calm - N/A   Scattered Clouds
7:32 AM 71.6 °F - 68.0 °F 88% 29.96 in 9.0 mi South 6.9 mph - N/A Thunderstorm Partly Cloudy
7:53 AM 71.1 °F - 68.0 °F 90% 29.93 in 7.0 mi SSE 6.9 mph - 0.05 in Rain , Thunderstorm Light Thunderstorms and Rain
8:29 AM 71.6 °F - 68.0 °F 88% 29.95 in 9.0 mi SSE 9.2 mph - 0.00 in   Clear
8:53 AM 72.0 °F - 69.1 °F 91% 29.94 in 7.0 mi SE 6.9 mph - 0.00 in   Clear
9:53 AM 75.9 °F - 71.1 °F 85% 29.92 in 10.0 mi South 8.1 mph - N/A   Clear
10:53 AM 79.0 °F - 70.0 °F 74% 29.92 in 10.0 mi South 15.0 mph - N/A   Scattered Clouds
11:53 AM 81.0 °F 84.9 °F 71.1 °F 72% 29.95 in 10.0 mi SW 11.5 mph - N/A   Mostly Cloudy
12:34 PM 69.8 °F - 62.6 °F 78% 30.02 in 3.0 mi WNW 18.4 mph 35.7 mph 0.00 in Rain Rain
12:38 PM 66.2 °F - 62.6 °F 88% 30.01 in 2.5 mi WNW 12.7 mph 33.4 mph 0.02 in Rain , Thunderstorm Light Thunderstorms and Rain
12:45 PM 66.2 °F - 64.4 °F 94% 30.00 in 5.0 mi WNW 9.2 mph - 0.04 in Rain , Thunderstorm Thunderstorms and Rain
12:53 PM 66.9 °F - 64.0 °F 90% 29.99 in 2.0 mi West 4.6 mph - 0.10 in Rain , Thunderstorm Rain
1:05 PM 68.0 °F - 64.4 °F 88% 30.02 in 6.0 mi SSW 6.9 mph - 0.02 in Rain , Thunderstorm Light Rain
1:53 PM 68.0 °F - 64.9 °F 90% 29.94 in 10.0 mi SSE 6.9 mph - 0.04 in Rain Light Rain
2:29 PM 68.0 °F - 64.4 °F 88% 29.88 in 10.0 mi ESE 8.1 mph - 0.02 in Rain , Thunderstorm Light Rain
2:43 PM 68.0 °F - 64.4 °F 88% 29.87 in 10.0 mi East 8.1 mph 18.4 mph 0.02 in Rain Light Rain
2:53 PM 66.0 °F - 64.9 °F 96% 29.85 in 10.0 mi ESE 12.7 mph - 0.02 in   Unknown
3:53 PM 69.1 °F - 64.9 °F 87% 29.83 in 10.0 mi SSE 18.4 mph 23.0 mph N/A   Clear
4:53 PM 72.0 °F - 66.0 °F 81% 29.88 in 10.0 mi SSE 3.5 mph - 0.00 in   Partly Cloudy
5:53 PM 75.0 °F - 68.0 °F 79% 29.82 in 10.0 mi SE 6.9 mph - N/A   Clear
6:53 PM 78.1 °F - 69.1 °F 74% 29.81 in 10.0 mi SSE 6.9 mph - N/A   Clear
7:53 PM 78.1 °F - 71.1 °F 79% 29.82 in 10.0 mi South 6.9 mph - N/A   Clear
8:53 PM 75.0 °F - 70.0 °F 84% 29.82 in 10.0 mi SSE 4.6 mph - N/A   Clear
9:53 PM 75.9 °F - 70.0 °F 82% 29.84 in 10.0 mi SSE 6.9 mph - N/A   Clear
10:53 PM 75.0 °F - 71.1 °F 87% 29.85 in 10.0 mi South 5.8 mph - N/A   Clear
11:53 PM 73.9 °F - 70.0 °F 87% 29.83 in 10.0 mi South 8.1 mph - N/A   Clear